Content
SEND FEEDBACK

Daily
Averages
Monthly
Summary
Iran

BOJNURD, IRAN


Home > Middle East > Iran
Elevation: 3694 feet     Latitude: 37 28N     Longitude: 057 20E

WEATHER
 
SELECT A DAY
Number of Records: 35,942;   Date Range: 5/9/03 - 11/26/14
 
SHARE

PRINT THIS DATA

[ ← Previous Day ]
WEATHER ALMANAC - JUNE 26, 2013
[ Next Day → ]
[ °C ]   °F
We're sorry. There is no daily almanac available for Bojnurd, Iran on June 26, 2013.
WEATHER BY HOUR - JUNE 26, 2013
[ °C ]   °F
Local TimeTemperatureDewpointHumidityBarometerVisibilityWind DirectionWind SpeedGust SpeedPrecipitationEventsConditions
4:30 AM65.0 °F58.0 °F72 %29.66 in6.0 miWest (260°)11.2 mph
4:30 AM64.4 °F59.0 °F83 %29.89 inWest (260°)11.5 mphClear
7:30 AM68.0 °F57.2 °F68 %29.92 in6.2 miNNW (340°)9.2 mphPartly Cloudy
8:30 AM69.8 °F57.2 °F64 %29.92 in6.2 miCalmPartly Cloudy
9:30 AM71.6 °F57.2 °F60 %29.95 in6.2 miCalmScattered Clouds
10:30 AM73.4 °F57.2 °F57 %29.92 in6.2 miWest (270°)9.2 mphScattered Clouds
10:30 AM74.0 °F57.0 °F46 %29.73 in6.0 miWest (270°)8.9 mphPartly Cloudy
11:30 AM77.0 °F57.2 °F50 %29.92 in6.2 miWest (270°)9.2 mphPartly Cloudy
12:30 PM80.6 °F57.2 °F45 %29.89 inWest (270°)9.2 mphClear
1:30 PM82.4 °F55.4 °F39 %29.89 inWSW (250°)18.4 mphClear
2:30 PM82.4 °F55.4 °F39 %29.89 in6.2 miWest (280°)13.8 mphPartly Cloudy
3:30 PM86.0 °F55.4 °F35 %29.89 in6.2 miNW (310°)16.1 mphPartly Cloudy
4:30 PM85.0 °F54.0 °F24 %29.67 in6.0 miWNW (300°)17.9 mphScattered Clouds
4:30 PM84.2 °F53.6 °F35 %29.86 in6.2 miWNW (300°)18.4 mphPartly Cloudy
5:30 PM84.2 °F53.6 °F35 %29.86 in6.2 miWNW (290°)18.4 mphPartly Cloudy
6:30 PM82.4 °F53.6 °F37 %29.89 in6.2 miWest (270°)13.8 mphScattered Clouds
7:30 PM80.6 °F53.6 °F39 %29.89 in6.2 miWNW (300°)9.2 mphScattered Clouds
8:30 PM77.0 °F53.6 °F44 %29.92 in6.2 miWNW (290°)9.2 mphPartly Cloudy
9:30 PM75.2 °F51.8 °F44 %29.95 in6.2 miWest (270°)11.5 mphPartly Cloudy
10:30 PM72.0 °F55.0 °F45 %29.76 in6.0 miWest (280°)17.9 mph
10:30 PM71.6 °F55.4 °F57 %29.95 inWest (280°)18.4 mphClear
Hourly data recorded from 40723, located miles away from Bojnurd, Iran







STORIES FROM OUR PARTNERS